Weather Roundup
Issued by NWS

Home | Current Version | Previous Version | Text Only | Print | Product List | Glossary On
Versions: 1 2 3 4 5 6 7 8 9 10 11 12 13 14 15 16 17 18 19 20 21 22 23 24 25 26 27 28 29 30 31 32 33 34 35 36 37 38 39 40 41 42 43 44 45 46 47 48 49 50
000
NZUS93 KARX 290710
HRRWXR

CURRENT HOURLY OBSERVATIONS ACROSS
MUCH OF THE UPPER MISSISSIPPI VALLEY
NATIONAL WEATHER SERVICE LA CROSSE WI
100 AM CST SAT NOV 29 2014


...SOUTHEAST MINNESOTA...


CITY           SKY/WX    TMP DP  RH WIND       PRES   REMARKS
ROCHESTER      PTCLDY    22  19  89 SE14      29.64F FOG     WCI   9
ROCHESTER/MAYO FAIR      23  20  89 SE10      29.65F WCI  12
WINONA         PTCLDY    25  21  86 S5        29.71F WCI  19
AUSTIN         PTCLDY    21  19  93 SE5       29.62F FOG     WCI  15
ALBERT LEA     PTCLDY    23  23 100 SE6       29.61F FOG     WCI  16
DODGE CENTER   PTCLDY    25  23  93 SE14      29.62F FOG     WCI  13
PRESTON        PTCLDY    23  22  94 SE6       29.66F FOG     WCI  16
OWATONNA       PTCLDY    25  21  86 SE14      29.61F WCI  13
FARIBAULT      PTCLDY    21  19  93 SE6       29.63F WCI  14
$$

...ELSEWHERE IN MINNESOTA...


CITY           SKY/WX    TMP DP  RH WIND       PRES   REMARKS
MINNEAPOLIS    MOCLDY    22  18  85 SE8       29.64F WCI  12
INTNL FALLS    CLOUDY    18  13  80 SE5       29.60F WCI  11
DULUTH         CLOUDY    18  13  80 SE8       29.63F WCI   8
RED WING       PTCLDY    25  21  86 SE9       29.66F WCI  15
REDWOOD FALLS  FAIR      20  17  88 SE12      29.56F WCI   8
MANKATO        PTCLDY    23  18  80 SE10      29.60F WCI  12
WORTHINGTON    MOCLDY    21  19  93 SE6       29.55F WCI  14
FAIRMONT       MOCLDY    19  18  93 SE8       29.57F WCI   9
$$

...SOUTHWEST WISCONSIN...


CITY           SKY/WX    TMP DP  RH WIND       PRES   REMARKS
LA CROSSE      PTCLDY    25  21  85 E7        29.71F WCI  17
PRAIRIE DU CHI CLEAR     27  24  90 E3        29.71F FOG
BOSCOBEL       CLEAR     19  16  88 CALM      29.73F FOG
LONE ROCK      PTCLDY    24  18  77 E7        29.75F HAZE    WCI  16
PLATTEVILLE    CLEAR     27  26  96 CALM      29.73F
FORT MC COY    PTCLDY    21  21  98 CALM      29.73F FOG
CAMP DOUGLAS   CLOUDY    22  22 100 SE9       29.73F WCI  12
VIROQUA        CLOUDY    24  24 100 E7        29.69F WCI  16
WIS DELLS      PTCLDY    24  23  95 E3        29.75S FOG
$$

...ELSEWHERE IN WISCONSIN...


CITY           SKY/WX    TMP DP  RH WIND       PRES   REMARKS
MILWAUKEE      CLOUDY    33  28  81 SE7       29.83F WCI  27
MADISON        PTCLDY    29  26  89 S8        29.77F FOG     WCI  21
GREEN BAY      MIX PCPN  27  25  92 CALM      29.81F FOG
EAU CLAIRE     PTCLDY    21  18  88 E6        29.70F WCI  13
BLACK RVR FLS  FAIR      20  20 100 CALM      29.73F FOG
MEDFORD        CLOUDY    19  17  93 E5        29.71F FOG     WCI  12
WAUSAU         CLOUDY    20  18  92 E5        29.74F WCI  13
WIS RAPIDS     CLOUDY    23  20  88 E6        29.76F WCI  16
MARSHFIELD     CLOUDY    22  19  89 E7        29.72F FOG     WCI  13
RICE LAKE      MOCLDY    19  16  90 E3        29.72S
$$

...NORTHEAST IOWA...


CITY           SKY/WX    TMP DP  RH WIND       PRES   REMARKS
DECORAH        MOCLDY    27  25  93 VRB7G14   29.66F FOG     WCI  19
MASON CITY     PTCLDY    23  22  96 SE8       29.63F FOG     WCI  14
CHARLES CITY   CLOUDY    27  27 100 SE10      29.64F FOG     WCI  17
OELWEIN        PTCLDY    30  28  93 SE14      29.66F FOG     WCI  20
$$

...ELSEWHERE IN IOWA...


CITY           SKY/WX    TMP DP  RH WIND       PRES   REMARKS
DES MOINES     PTCLDY    37  31  78 SE6       29.61F WCI  32
IOWA CITY      PTCLDY    29  27  92 SE5       29.71F WCI  24
FORT DODGE     PTCLDY    28  25  86 SE6       29.59F WCI  22
$$

...NORTHERN ILLINOIS...


CITY           SKY/WX    TMP DP  RH WIND       PRES   REMARKS
CHICAGO-OHARE  PTCLDY    30  27  88 S9        29.84F WCI  22
CHICAGO-MIDWAY CLEAR     34  28  79 SE6       29.87F WCI  29
MOLINE         CLEAR     33  29  85 VRB5      29.73F WCI  29
ROCKFORD       CLEAR     31  27  85 SE9       29.81F WCI  23
PEORIA         PTCLDY    38  31  76 S12       29.81F WCI  30
$$

NOTE: "FAIR" INDICATES FEW OR NO CLOUDS BELOW 12,000 FEET WITH NO
SIGNIFICANT WEATHER AND/OR OBSTRUCTIONS TO VISIBILITY. WIND
SPEEDS ARE IN MILES-PER-HOUR.



USA.gov is the U.S. government's official web portal to all federal, state and local government web resources and services.